Regional Weather Roundup
Issued by NWS

Home | Current Version | Previous Version | Graphics & Text | Print | Product List | Glossary Off
Versions: 1 2 3 4 5 6 7 8 9 10 11 12 13 14 15 16 17 18 19 20 21 22 23 24 25 26 27 28 29 30 31 32 33 34 35 36 37 38 39 40 41 42 43 44 45 46 47 48 49 50

000
ASUS43 KTOP 171408
RWRKS

WEATHER ROUNDUP FOR KANSAS
NATIONAL WEATHER SERVICE GOODLAND KS
800 AM CST SAT FEB 17 2018

NOTE:  "FAIR" INDICATES FEW OR NO CLOUDS BELOW 12,000 FEET WITH NO
SIGNIFICANT WEATHER AND/OR OBSTRUCTIONS TO VISIBILITY.

KSZ001>006-013>018-027>032-041>047-171500-
NORTHWEST KANSAS

CITY           SKY/WX    TMP DP  RH WIND       PRES   REMARKS
GOODLAND       CLEAR     27  19  72 NW10      30.01R WCI  17
HAYS           CLEAR     27  18  69 NW12      30.00R WCI  17
HILL CITY      CLEAR     33  22  63 NW12G24   29.99R WCI  24
RUSSELL        CLEAR     26  17  68 W7        29.97R
$$

KSZ061>065-074>080-084>089-171500-
SOUTHWEST KANSAS

CITY           SKY/WX    TMP DP  RH WIND       PRES   REMARKS
DODGE CITY     CLOUDY    30  18  60 N10       30.00R WCI  21
ELKHART        CLEAR     32  22  67 N10       30.07R WCI  24
GARDEN CITY    CLOUDY    24  17  74 N8        30.02R
GREAT BEND     CLOUDY    22  16  78 W8        30.00R
LIBERAL        CLOUDY    34  21  59 N12       30.04R WCI  25
PRATT          CLOUDY    29  23  78 NW6       29.99S
$$

KSZ066>073-081>083-090>101-171500-
SOUTHEAST KANSAS

CITY           SKY/WX    TMP DP  RH WIND       PRES   REMARKS
CHANUTE        CLOUDY    37  35  92 SW10      30.03R WCI  30
COFFEYVILLE    LGT RAIN  37  37 100 S7        30.04R FOG
HUTCHINSON     PTCLDY    33  26  75 W9        30.00R
MEDICINE LODGE   N/A     26  24  92 N3        30.00R
NEWTON         CLOUDY    33  29  85 SW12      29.99R WCI  24
PARSONS        CLOUDY    36  36 100 S7        30.04R FOG
WICHITA INTL   PTCLDY    31  30  96 SW5       30.01R
WICHITA JABRA  CLOUDY    35  32  88 SW13      30.00R WCI  26
WICHITA MCCONL MOCLDY    32  30  93 SW5       30.01
WINFIELD       CLOUDY    34  34 100 SW6       30.03R
$$

KSZ007>012-019>026-033>040-048>060-102>105-171500-
NORTHEAST KANSAS

CITY           SKY/WX    TMP DP  RH WIND       PRES   REMARKS
CONCORDIA      CLEAR     27  17  66 W12       29.95R WCI  17
EMPORIA        CLOUDY    34  30  85 SW12      29.99R WCI  25
LAWRENCE       CLOUDY    33  33 100 S5        29.99R
MANHATTAN      CLOUDY    31  22  69 SW6       29.98R
MARYSVILLE     CLEAR     30  21  69 SW6       29.96R
OLATHE IND     MIX PCPN  33  33 100 S10       29.99R FOG     WCI  25
OLATHE EXE     LGT RAIN  32  32 100 S9        29.98R FOG
SALINA         CLOUDY    28  19  69 W3        30.00R
TOPEKA BILLARD CLOUDY    34  31  88 S5        29.98R
TOPEKA FORBES  CLOUDY    34  32  92 S12       29.97R WCI  25
$$




USA.gov is the U.S. government's official web portal to all federal, state and local government web resources and services.